Weather History for CWGT - January, 2013

Change the Weather History Date:

Friday, January 25, 2013

  Actual Average Record
Temperature  
Mean Temperature 43 °F -  
Max Temperature 44 °F - - ()
Min Temperature 42 °F - - ()
Degree Days  
Heating Degree Days 22    
Moisture  
Dew Point 41 °F    
Average Humidity 88    
Maximum Humidity 91    
Minimum Humidity 82    
Precipitation  
Precipitation 0.00 in - - ()
Sea Level Pressure  
Sea Level Pressure 29.91 in    
Wind  
Wind Speed 25 mph ()    
Max Wind Speed 37 mph    
Max Gust Speed 45 mph    
T = Trace of Precipitation, MM = Missing Value Source: Averaged Metar Reports

Daily Weather History Graph

Daily Weather History Graph

Search for Another Location

Airport or City:

Trip Planner

Search our weather history database for the weather conditions in past years. The results will help you decide how hot, cold, wet, or windy it might be!

Date:

Astronomy

Jan. 25, 2013 Rise Set
Actual Time 7:58 AM PST 5:02 PM PST
Civil Twilight 7:23 AM PST 5:37 PM PST
Nautical Twilight 6:44 AM PST 6:16 PM PST
Astronomical Twilight 6:06 AM PST 6:54 PM PST
Moon 4:05 PM PST (1/25) 6:42 AM PST (1/25)
Length of Visible Light 10h 14m
Length of Day
9h 04m
Waxing Gibbous, 98% of the Moon is Illuminated
Jan 25
Waxing Gibbous
Jan 26
Full
Feb 3
Last Quarter
Feb 9
New
Feb 17
First Quarter

Hourly Weather History & Observations

Time (PST) Temp. Windchill Dew Point Humidity Pressure Visibility Wind Dir Wind Speed Gust Speed Precip Events Conditions
12:00 AM 42.4 °F 30.8 °F 39.0 °F 88% 29.91 in - ESE 36.8 mph 44.9 mph N/A   Unknown
1:00 AM 42.4 °F 30.9 °F 39.7 °F 90% 29.90 in - ESE 35.7 mph - N/A   Unknown
2:00 AM 42.8 °F 32.3 °F 40.3 °F 91% 29.92 in - ESE 29.9 mph - N/A   Unknown
3:00 AM 43.0 °F 33.5 °F 40.5 °F 91% 29.95 in - ESE 24.2 mph - N/A   Unknown
4:00 AM 43 °F - 41 °F 88% 29.94 in - ESE 25.3 mph - -  
4:00 AM 43.3 °F 33.8 °F 40.6 °F 90% 29.94 in - ESE 25.3 mph - N/A   Unknown
5:00 AM 43.5 °F 34.3 °F 40.8 °F 90% 29.95 in - ESE 24.2 mph - N/A   Unknown
6:00 AM 43.5 °F 35.2 °F 40.6 °F 90% 29.98 in - ESE 19.6 mph - N/A   Unknown
7:00 AM 43.5 °F 35.8 °F 40.6 °F 90% 29.99 in - ESE 17.3 mph - N/A   Unknown
8:00 AM 43.5 °F 35.0 °F 40.5 °F 89% 29.98 in - ESE 20.7 mph - N/A   Unknown
9:00 AM 43.5 °F 35.0 °F 40.5 °F 89% 29.98 in - ESE 20.7 mph - N/A   Unknown
10:00 AM 44 °F - 40 °F 82% 29.99 in - ESE 23.0 mph - -  
10:00 AM 43.5 °F 34.5 °F 40.3 °F 88% 29.99 in - ESE 23.0 mph - N/A   Unknown
11:00 AM 43.7 °F 34.5 °F 40.5 °F 88% 29.98 in - ESE 24.2 mph - N/A   Unknown
12:00 PM 43.2 °F 33.2 °F 40.1 °F 89% 29.94 in - ESE 27.6 mph - N/A   Unknown
1:00 PM 43.5 °F 33.6 °F 40.3 °F 88% 29.93 in - ESE 27.6 mph - N/A   Unknown
2:00 PM 43.9 °F 33.6 °F 40.1 °F 87% 29.90 in - ESE 31.1 mph - N/A   Unknown
3:00 PM 43.7 °F 33.7 °F 40.5 °F 88% 29.88 in - ESE 28.8 mph - N/A   Unknown
4:00 PM 44 °F - 41 °F 84% 29.88 in - ESE 29.9 mph - -  
4:00 PM 44.1 °F 34.0 °F 40.8 °F 88% 29.88 in - ESE 29.9 mph - N/A   Unknown
5:00 PM 44.4 °F 34.3 °F 40.6 °F 87% 29.86 in - ESE 31.1 mph - N/A   Unknown
6:00 PM 44.4 °F 34.5 °F 41.0 °F 88% 29.85 in - ESE 29.9 mph - N/A   Unknown
7:00 PM 44.2 °F 34.6 °F 41.4 °F 90% 29.85 in - ESE 27.6 mph - N/A   Unknown
8:00 PM 44.4 °F 34.7 °F 40.8 °F 87% 29.85 in - ESE 28.8 mph - N/A   Unknown
9:00 PM 44.1 °F 34.2 °F 41.0 °F 89% 29.83 in - ESE 28.8 mph - N/A   Unknown
10:00 PM 44 °F - 41 °F 86% 29.84 in - ESE 26.5 mph - -  
10:00 PM 44.2 °F 34.8 °F 41.2 °F 89% 29.84 in - ESE 26.5 mph - N/A   Unknown
11:00 PM 44.1 °F 34.4 °F 40.8 °F 88% 29.83 in - ESE 27.6 mph - N/A   Unknown